FW8993 Weather Reports


time (UTC)temp
F
wind
direction
speed
knots
gust
knots
rain 1hr
in
rain 24hr
in
rain mn
in
humidity
%
barometer
mb
20260507195858 84 172 0.9 0.9 0.00 0.00 0.00 74 1015.3
20260507194853 85 76 1.7 1.7 0.00 0.00 0.00 71 1015.4
20260507193851 86 69 0.9 1.7 0.00 0.00 0.00 70 1015.5
20260507192851 88 318 2.6 2.6 0.00 0.00 0.00 66 1015.3
20260507191849 87 266 1.7 1.7 0.00 0.00 0.00 68 1015.5
20260507190848 88 241 6.1 8.7 0.00 0.00 0.00 65 1015.5
20260507185845 87 159 2.6 2.6 0.00 0.00 0.00 68 1015.6
20260507184844 88 335 5.2 6.1 0.00 0.00 0.00 65 1015.7
20260507183844 87 345 3.5 4.3 0.00 0.00 0.00 70 1015.8
20260507182839 87 324 6.1 7.8 0.00 0.00 0.00 67 1016.0
20260507181837 86 334 2.6 4.3 0.00 0.00 0.00 70 1016.2
20260507180835 86 323 5.2 7.0 0.00 0.00 0.00 70 1016.4
20260507175833 86 331 9.6 11.3 0.00 0.00 0.00 68 1016.1
20260507174828 86 229 4.3 6.1 0.00 0.00 0.00 71 1016.1
20260507173828 86 343 4.3 5.2 0.00 0.00 0.00 70 1016.6
20260507172827 86 318 5.2 6.1 0.00 0.00 0.00 70 1016.6
20260507171826 87 309 7.0 8.7 0.00 0.00 0.00 69 1016.7
20260507170826 86 280 6.1 7.8 0.00 0.00 0.00 67 1016.9
20260507165824 86 321 7.0 8.7 0.00 0.00 0.00 65 1016.8
20260507164822 86 275 3.5 5.2 0.00 0.00 0.00 67 1017.2
20260507163822 86 229 1.7 2.6 0.00 0.00 0.00 68 1017.2
20260507162821 87 323 3.5 5.2 0.00 0.00 0.00 66 1017.3
20260507161820 87 324 3.5 4.3 0.00 0.00 0.00 64 1017.6
20260507160819 88 258 1.7 1.7 0.00 0.00 0.00 65 1017.4
20260507155817 86 300 5.2 7.0 0.00 0.00 0.00 65 1017.5
20260507154815 87 308 1.7 2.6 0.00 0.00 0.00 66 1017.4
20260507153815 87 339 6.1 7.8 0.00 0.00 0.00 65 1017.7
20260507152814 87 319 3.5 4.3 0.00 0.00 0.00 67 1017.8
20260507151812 87 341 3.5 4.3 0.00 0.00 0.00 65 1017.8
20260507150812 87 321 2.6 5.2 0.00 0.00 0.00 65 1017.9
20260507145810 86 323 2.6 2.6 0.00 0.00 0.00 67 1017.7
20260507144810 87 305 6.1 7.8 0.00 0.00 0.00 63 1017.9
20260507143809 88 158 0.9 1.7 0.00 0.00 0.00 60 1017.7
20260507142808 86 279 2.6 2.6 0.00 0.00 0.00 63 1017.9
20260507141808 88 271 3.5 5.2 0.00 0.00 0.00 59 1018.1
20260507140807 89 105 0.9 0.9 0.00 0.00 0.00 57 1017.7
20260507135802 89 56 0.9 0.9 0.00 0.00 0.00 57 1017.9
20260507134801 87 96 1.7 1.7 0.00 0.00 0.00 59 1018.0
20260507133759 88 116 0.0 0.0 0.00 0.00 0.00 56 1017.7
20260507132754 88 13 1.7 1.7 0.00 0.00 0.00 58 1018.0
20260507131753 86 127 0.9 0.9 0.00 0.00 0.00 60 1017.8
20260507130752 86 156 0.9 0.9 0.00 0.00 0.00 63 1017.6
20260507125749 87 99 0.9 0.9 0.00 0.00 0.00 63 1017.7
20260507124748 85 115 0.0 0.0 0.00 0.00 0.00 64 1017.8
20260507123743 85 332 0.9 1.7 0.00 0.00 0.00 65 1017.7
20260507122742 84 104 0.9 0.9 0.00 0.00 0.00 66 1017.6
20260507121739 83 114 0.0 0.9 0.00 0.00 0.00 67 1017.3
20260507120738 82 128 0.9 0.9 0.00 0.00 0.00 71 1017.1
20260507115737 82 134 0.0 0.9 0.00 0.00 0.00 72 1017.1
20260507114734 82 125 0.0 0.0 0.00 0.00 0.00 72 1017.1
20260507113729 82 99 0.0 0.9 0.00 0.00 0.00 70 1016.8
20260507112729 80 130 0.0 0.0 0.00 0.00 0.00 73 1016.8
20260507111724 76 115 0.0 0.9 0.00 0.00 0.00 82 1016.9
20260507110722 75 131 0.9 0.9 0.00 0.00 0.00 85 1016.8
20260507105722 74 151 1.7 1.7 0.00 0.00 0.00 86 1016.9
20260507104721 73 129 0.0 0.9 0.00 0.00 0.00 87 1016.9
20260507103719 73 102 0.0 0.0 0.00 0.00 0.00 88 1016.9
20260507102718 72 121 0.0 0.0 0.00 0.00 0.00 90 1016.8
20260507101717 72 137 0.0 0.0 0.00 0.00 0.00 90 1016.5
20260507100716 73 139 0.0 0.9 0.00 0.00 0.00 90 1016.4
20260507095712 73 120 0.0 0.9 0.00 0.00 0.00 90 1016.3
20260507094711 73 126 0.0 0.0 0.00 0.00 0.00 90 1016.2
20260507093710 72 125 0.0 0.9 0.00 0.00 0.00 90 1015.9
20260507092706 73 117 0.0 0.0 0.00 0.00 0.00 90 1016.1
20260507091705 73 119 0.9 0.9 0.00 0.00 0.00 90 1016.0
20260507090702 73 146 0.9 1.7 0.00 0.00 0.00 90 1016.1
20260507085702 73 132 0.0 0.9 0.00 0.00 0.00 90 1016.3
20260507084702 73 146 0.9 0.9 0.00 0.00 0.00 89 1016.3
20260507083700 73 126 0.0 0.0 0.00 0.00 0.00 88 1016.4
20260507082659 74 141 0.0 0.0 0.00 0.00 0.00 88 1016.3
20260507081658 74 143 0.0 0.0 0.00 0.00 0.00 87 1016.4
20260507080656 74 118 0.0 0.0 0.00 0.00 0.00 88 1016.2
20260507075653 74 148 0.0 0.0 0.00 0.00 0.00 90 1016.2
20260507074652 74 128 0.0 0.0 0.00 0.00 0.00 91 1016.2
20260507073652 74 127 0.0 0.0 0.00 0.00 0.00 90 1016.1
20260507072652 74 128 0.0 0.0 0.00 0.00 0.00 90 1016.1
20260507071647 74 128 0.0 0.0 0.00 0.00 0.00 90 1016.4
20260507070646 74 133 0.0 0.0 0.00 0.00 0.00 90 1016.6
20260507065645 75 120 0.0 0.0 0.00 0.00 0.00 89 1016.7
20260507064640 75 128 0.0 0.9 0.00 0.00 0.00 89 1016.4
20260507063635 75 136 0.0 0.0 0.00 0.00 0.00 89 1016.6
20260507062635 75 142 0.9 0.9 0.00 0.00 0.00 89 1016.8
20260507061630 75 145 0.9 0.9 0.00 0.00 0.00 89 1017.0
20260507060626 75 146 1.7 1.7 0.00 0.00 0.00 89 1017.0
20260507055623 76 130 0.9 0.9 0.00 0.00 0.00 88 1017.4
20260507054621 76 128 0.0 0.0 0.00 0.00 0.00 88 1017.3
20260507053617 76 133 0.9 1.7 0.00 0.00 0.00 88 1017.5
20260507052613 76 143 0.0 0.0 0.00 0.00 0.00 89 1017.4
20260507051612 77 150 1.7 1.7 0.00 0.00 0.00 88 1017.5
20260507050611 77 148 0.9 0.9 0.00 0.00 0.00 88 1017.7
20260507045611 77 137 0.9 0.9 0.00 0.00 0.00 87 1017.9
20260507044610 77 121 0.9 1.7 0.00 0.00 0.00 87 1018.0
20260507043609 77 146 0.0 0.0 0.00 0.00 0.00 87 1018.2
20260507042608 77 140 0.0 0.0 0.00 0.00 0.00 87 1018.4
20260507041606 78 123 0.0 0.9 0.00 0.00 0.00 86 1018.4
20260507040606 78 128 0.9 0.9 0.00 0.00 0.00 86 1018.5
20260507035604 79 133 0.0 0.0 0.00 0.00 0.00 85 1018.6
20260507034603 79 139 0.0 0.0 0.00 0.00 0.00 85 1018.7
20260507033559 79 141 0.9 0.9 0.00 0.00 0.00 85 1018.8
20260507032559 79 135 0.0 0.9 0.00 0.00 0.00 85 1018.7
20260507031558 79 134 0.0 0.9 0.00 0.00 0.00 85 1019.0
20260507030557 80 131 0.9 0.9 0.00 0.00 0.00 85 1019.0
20260507025552 80 119 0.0 0.9 0.00 0.00 0.00 84 1018.9
20260507024552 80 136 0.0 0.0 0.00 0.00 0.00 84 1018.9
20260507023550 80 127 0.0 0.0 0.00 0.00 0.00 84 1018.8
20260507022545 80 136 0.0 0.0 0.00 0.00 0.00 83 1019.0
20260507021542 80 136 0.9 0.9 0.00 0.00 0.00 83 1018.8
20260507020537 80 126 0.0 0.9 0.00 0.00 0.00 83 1018.7
20260507015538 80 137 0.9 0.9 0.00 0.00 0.00 83 1018.8
20260507014537 81 125 0.0 0.9 0.00 0.00 0.00 82 1018.3
20260507013535 81 139 0.9 0.9 0.00 0.00 0.00 81 1018.5
20260507012530 81 136 0.9 0.9 0.00 0.00 0.00 81 1018.5
20260507011530 81 136 0.9 0.9 0.00 0.00 0.00 81 1018.2
20260507010526 81 138 0.9 0.9 0.00 0.00 0.00 81 1018.2
20260507005526 82 120 0.9 1.7 0.00 0.00 0.00 80 1017.9
20260507004525 82 132 0.9 0.9 0.00 0.00 0.00 78 1018.0
20260507003524 82 93 0.9 0.9 0.00 0.00 0.00 77 1018.0
20260507002522 83 86 0.9 0.9 0.00 0.00 0.00 76 1018.1
20260507001520 83 130 0.0 0.0 0.00 0.00 0.00 75 1018.0
20260507000520 83 319 0.9 0.9 0.00 0.00 0.00 74 1017.7
20260506235519 83 168 0.9 0.9 0.00 0.00 0.00 73 1017.8
20260506234519 83 293 0.9 0.9 0.00 0.00 0.00 73 1017.5
20260506233518 83 116 0.0 0.0 0.00 0.00 0.00 74 1017.4
20260506232517 83 300 1.7 1.7 0.00 0.00 0.00 74 1017.4
20260506231516 83 326 2.6 2.6 0.00 0.00 0.00 74 1017.3
20260506230515 84 156 0.9 0.9 0.00 0.00 0.00 75 1017.3
20260506225510 84 154 0.9 0.9 0.00 0.00 0.00 74 1017.0
20260506224509 84 216 0.9 1.7 0.00 0.00 0.00 74 1016.9
20260506223507 84 108 1.7 2.6 0.00 0.00 0.00 73 1016.8
20260506222506 84 141 0.0 0.0 0.00 0.00 0.00 73 1016.9
20260506221505 85 238 0.9 1.7 0.00 0.00 0.00 73 1016.5
20260506220503 84 321 0.9 1.7 0.00 0.00 0.00 73 1016.6
20260506215502 84 273 2.6 2.6 0.00 0.00 0.00 73 1016.3
20260506214500 84 92 2.6 2.6 0.00 0.00 0.00 72 1016.3
20260506213455 84 221 2.6 4.3 0.00 0.00 0.00 72 1016.5
20260506212453 85 320 2.6 2.6 0.00 0.00 0.00 71 1016.3
20260506211450 84 102 2.6 4.3 0.00 0.00 0.00 72 1016.1
20260506210450 84 253 1.7 1.7 0.00 0.00 0.00 71 1016.0
20260506205449 85 217 2.6 2.6 0.00 0.00 0.00 71 1016.0
20260506204449 85 291 2.6 2.6 0.00 0.00 0.00 69 1015.9
20260506203449 85 304 4.3 6.1 0.00 0.00 0.00 67 1016.2
20260506202444 86 292 1.7 2.6 0.00 0.00 0.00 66 1015.9
20260506201443 87 285 2.6 2.6 0.00 0.00 0.00 65 1016.1